This demonstration page uses our WeatherBlox Daily Observations layout. Learn more.

Left ArrowRight Arrow

39.92423, -83.80882

Hourly Observations for April 19, 2020

Temp ( °F °C ) Dew Point ( °F °C ) Humidity (%) Winds ( mph kmh ) Pressure ( in mb ) Visibility ( mi km ) Precip ( " mm )
12:56 am 00:56 Clear 42 5.6 33 0.6 71 71 SSW 8 13 29.94 1014 10 16.0934 0 0
1:56 am 01:56 Clear 41 5 34 1.1 76 76 SSW 7 11 29.93 1013 10 16.0934 0 0
2:56 am 02:56 Clear 41 5 34 1.1 76 76 SSW 9 15 29.91 1013 10 16.0934 0 0
3:56 am 03:56 Clear 40 4.4 34 1.1 79 79 SW 7 11 29.91 1013 10 16.0934 0 0
4:56 am 04:56 Clear 41 5 34 1.1 76 76 SSW 9 15 29.89 1012 10 16.0934 0 0
5:56 am 05:56 Clear 40 4.4 34 1.1 79 79 SW 9 15 29.9 1013 10 16.0934 0 0
6:56 am 06:56 Sunny 39 3.9 34 1.1 82 82 SW 9 15 29.89 1012 10 16.0934 0 0
7:56 am 07:56 Sunny 40 4.4 35 1.7 83 83 SW 9 15 29.9 1013 10 16.0934 0 0
8:56 am 08:56 Sunny 42 5.6 36 2.2 79 79 SW 8 13 29.89 1012 10 16.0934 0 0
9:56 am 09:56 Mostly Cloudy 44 6.7 37 2.8 76 76 SSW 9 15 29.88 1012 10 16.0934 0 0
10:56 am 10:56 Cloudy 47 8.3 38 3.3 71 71 SW 9 15 29.86 1011 10 16.0934 0 0
11:56 am 11:56 Cloudy 51 10.6 39 3.9 64 64 SW 12 19 29.85 1011 10 16.0934 0 0
12:56 pm 12:56 Sunny 53 11.7 39 3.9 59 59 SW 10 17 29.84 1010 10 16.0934 0 0
1:56 pm 13:56 Mostly Cloudy 55 12.8 40 4.4 57 57 SW 12 19 29.8 1009 10 16.0934 0 0
2:56 pm 14:56 Cloudy 56 13.3 40 4.4 55 55 VRB 6 9 29.78 1008 10 16.0934 0 0
3:56 pm 15:56 Mostly Cloudy 56 13.3 40 4.4 55 55 SW 17 28 29.78 1009 10 16.0934 0 0
4:56 pm 16:56 Cloudy 56 13.3 40 4.4 55 55 W 16 26 29.78 1009 10 16.0934 0 0
5:56 pm 17:56 Sunny 56 13.3 41 5 57 57 WSW 12 19 29.78 1008 10 16.0934 0 0
6:56 pm 18:56 Sunny 55 12.8 43 6.1 64 64 SW 12 19 29.79 1009 10 16.0934 0 0
7:56 pm 19:56 Sunny 54 12.2 43 6.1 67 67 SW 7 11 29.78 1009 10 16.0934 0 0
8:56 pm 20:56 Mostly Clear 51 10.6 42 5.6 71 71 SSW 5 7 29.79 1009 10 16.0934 0 0
9:56 pm 21:56 Partly Cloudy 49 9.4 41 5 74 74 SW 3 6 29.79 1009 10 16.0934 0 0
10:56 pm 22:56 Clear 46 7.8 41 5 83 83 Calm 29.78 1008 10 16.0934 0 0
11:56 pm 23:56 Clear 44 6.7 40 4.4 85 85 N 6 9 29.79 1009 10 16.0934 0.02 0.508

Powered by AerisWeather